SCP
0 0 0 0 0 0 0 0 0 0 0 0 0 0 0 0 0 0 0 0 0 0 0 0 0 0 0 0 0 0 0 0 0 0 0 0 0 0 0 0 0 0 0 0 0 0 0 0 0
0 0 0 0 0 0 0 0 0 0 0 0 0 0 0 0 0 0 0 0 0 0 0 0 0 0 0 0 0 0 0 0 0 0 0 0 0 0 0 0 0 0 0 0 0 0 0 0 0
0 0 -0 0 0 0 0 0 0 0 0 0 0 0 0 0 0 0 0 0 0 0 0 0 0 0 0 0 0 0 0 0 0 0 0 0 0 0 0 0 0 0 0 0 0 0 0 0 0
0 0 -0 0 0 0 0 0 0 0 0 0 0 0 0 0 0 0 0 0 0 0 0 0 0 0 0 0 0 0 0 0 0 0 0 0 0 0 0 0 0 0 0 0 0 0 0 0 0
0 0 0 0 0 0 0 0 0 0 0 0 0 0 0 0 0 0 0 0 0 0 0 0 0 0 0 0 0 0 0 0 0 0 0 0 0 0 0 0 0 0 0 0 0 0 0 0 0
0 0 0 0 -0 0 0 0 0 0 0 0 0 0 0 0 0 0 0 0 0 0 0 0 0 0 0 0 0 0 0 0 0 0 0 0 0 0 0 0 0 0 0 0 0 0 0 0 0
0 0 0 0 0 0 0 0 0 0 0 0 0 0 0 0 0 0 0 0 0 0 0 0 0 0 0 0 0 0 0 0 0 0 0 0 0 0 0 0 0 0 0 0 0 0 0 0 0
0 0 0 0 0 0 0 0 0 0 0 0 0 0 0 0 0 0 0 0 0 0 0 0 0 0 0 0 0 0 0 0 0 0 0 0 0 0 0 0 0 0 0 0 0 0 0 0 0
0 0 0 0 0 0 0 0 0 0 0 0 0 0 0 0 0 0 0 0 0 0 0 0 0 0 0 0 0 0 0 0 0 0 0 0 0 0 0 0 0 0 0 0 0 0 0 0 0
0 0 0 0 0 0 0 0 0 0 0 0 0 0 0 0 0 0 0 0 0 0 0 0 0 0 0 0 0 0 0 0 0 0 0 0 0 0 0 0 0 0 0 0 0 0 0 0 0
0 0 0 0 0 0 0 0 0 0 0 0 0 0 0 0 0 0 0 0 0 0 0 0 0 0 0 0 0 0 0 0 0 0 0 0 0 0 0 0 0 0 0 0 0 0 0 0 0
0 0 0 0 0 0 0 0 0 0 0 0 0 0 0 0 0 0 0 0 0 0 0 0 0 0 0 0 0 0 0 0 0 0 0 0 0 0 0 0 0 0 0 0 0 0 0 0 0
0 0 0 0 0 0 0 0 0 0 0 0 0 0 0 0 0 0 0 0 0 0 0 0 0 0 0 0 0 0 0 0 0 0 0 0 0 0 0 0 0 0 0 0 0 0 0 0 0
0 0 0 0 0 0 0 0 0 0 0 0 0 0 0 0 0 0 0 0 0 0 0 0 0 0 0 0 0 0 0 0 0 0 0 0 0 0 0 0 0 0 0 0 0 0 0 0 0
0 0 0 0 0 0 0 0 0 0 0 0 0 0 0 0 0 0 0 0 0 0 0 0 0 0 0 0 0 0 0 0 0 0 0 0 0 0 0 0 0 0 0 0 0 0 0 0 0
0 0 0 0 0 0 0 0 0 0 0 0 0 0 0 0 0 0 0 0 0 0 0 0 0 0 0 0 0 0 0 0 0 0 0 0 0 0 0 0 0 0 0 0 0 0 0 0 0
0 0 0 0 0 0 0 0 0 0 0 0 0 0 0 0 0 0 0 0 0 0 0 0 0 0 0 0 0 0 0 0 0 0 0 0 0 0 0 0 0 0 0 0 0 0 0 0 0
0 0 0 0 0 0 0 0 0 0 0 0 0 0 0 0 0 0 0 0 0 0 0 0 0 0 0 0 0 0 0 0 0 0 0 0 0 0 0 0 0 0 0 0 0 0 0 0 0
0 0 0 0 0 0 0 0 0 0 0 0 0 0 0 0 0 0 0 0 0 0 0 0 0 0 0 0 0 0 0 0 0 0 0 0 0 0 0 0 0 0 0 0 0 0 0 0 0
0 0 0 0 0 0 0 0 0 0 0 0 0 0 0 0 0 0 0 0 0 0 0 0 0 0 0 0 0 0 0 0 0 0 0 0 0 0 0 0 0 0 0 0 0 0 0 0 0
0 0 0 0 0 0 0 0 0 0 0 0 0 0 0 0 0 0 0 0 0 0 0 0 0 0 0 0 0 0 0 0 0 0 0 0 0 0 0 0 0 0 0 0 0 0 0 0 0
0 0 0 0 0 0 0 0 0 0 0 0 0 0 0 0 0 0 -0 -0 -0 0 0 0 0 0 0 0 0 0 0 0 0 0 0 0 0 0 0 0 0 0 0 0 0 0 0 0 0
0 0 0 0 0 0 0 0 0 0 0 0 0 0 0 0 0 0 0 0 0 0 0 0 0 0 0 0 0 0 0 0 0 0 0 0 0 0 0 0 0 0 0 0 0 0 0 0 0
0 0 0 0 0 0 0 0 0 0 0 0 0 0 0 0 0 0 0 0 0 0 0 0 0 0 0 0 0 0 0 0 0 0 0 0 0 0 0 0 0 0 0 0 0 0 0 0 0
0 0 0 0 0 0 0 0 0 0 0 0 0 0 0 0 0 0 0 0 0 0 0 0 0 0 0 0 0 0 0 0 0 0 0 0 0 0 0 0 0 0 0 0 0 0 0 0 0
0 0 0 0 0 0 0 0 0 0 0 0 0 0 0 0 0 0 -0 0 0 0 0 0 0 0 0 0 0 0 0 0 0 0 0 0 0 0 0 0 0 0 0 0 0 0 0 0 0
0 0 0 0 0 0 0 0 0 0 0 0 0 0 0 0 0 -0 0 0 0 0 0 0 0 0 0 0 0 0 0 0 0 0 0 0 0 0 0 0 0 0 0 0 0 0 0 0 0
0 0 0 0 0 0 0 0 0 0 0 0 0 0 0 0 -0 0 0 0 0 0 0 0 0 0 0 0 0 0 0 0 0 0 0 0 0 0 0 0 0 0 0 0 0 0 0 0 0
0 0 0 0 0 0 0 0 0 0 0 0 0 0 -0 -0 0 0 0 0 0 0 0 0 0 0 0 0 0 0 0 0 0 0 0 0 0 0 0 0 0 0 0 0 0 0 0 0 0
0 0 0 0 0 0 0 0 0 0 0 0 0 -0 -0 -0 0 0 0 0 0 0 0 0 0 0 0 0 0 0 0 0 0 0 0 0 0 0 0 0 0 0 0 0 0 0 0 0 0
Wind_Speed
4 2 3 4 6 5 3 4 4 4 4 3 4 6 5 4 4 5 1 11 12 15 17 21 24 23 21 20 18 17 16 15 14 13 12 12 11 11 11 11 11 12 12 12 12 13 13 13 13
1 2 4 5 5 1 5 4 6 7 6 4 3 4 3 5 2 3 5 10 15 16 15 16 24 23 22 21 19 18 17 16 15 14 13 13 12 11 11 11 11 11 11 11 11 12 12 12 12
1 2 4 5 3 4 4 4 6 3 4 5 4 3 4 5 5 7 7 14 16 15 13 17 26 24 23 21 20 19 18 17 16 15 14 13 13 12 11 11 11 10 10 10 10 11 11 11 11
3 4 5 4 4 7 6 7 5 3 2 3 5 3 3 3 6 8 9 17 17 14 12 15 26 24 23 22 21 20 19 18 17 16 15 14 13 12 12 11 10 10 10 9 9 9 10 10 10
4 4 4 2 6 6 5 6 7 7 5 5 5 5 4 2 3 7 15 19 19 15 12 13 25 24 23 22 21 20 19 18 18 17 16 15 14 13 12 11 10 10 9 9 8 8 8 8 8
5 5 3 3 7 7 6 2 5 5 4 3 4 3 5 2 5 9 16 16 16 16 14 12 25 24 23 23 22 21 20 19 18 17 17 16 15 14 13 12 11 10 9 8 8 7 7 7 7
4 4 2 4 5 7 5 1 3 3 3 6 7 5 4 3 3 8 10 10 10 12 12 10 12 18 23 23 22 21 20 19 19 18 17 16 15 15 14 13 12 11 9 8 7 6 5 5 5
5 4 1 3 4 7 5 2 2 3 5 2 8 7 7 7 6 7 7 7 8 9 11 10 9 9 10 13 21 21 21 20 19 18 17 16 16 15 15 13 13 12 10 9 8 7 5 4 4
5 4 3 5 5 6 3 2 3 2 3 2 4 4 3 9 11 10 6 6 8 11 11 10 9 9 8 8 14 18 19 19 18 15 18 15 6 6 8 11 13 13 12 10 9 8 7 6 4
4 3 8 6 5 5 4 4 4 3 4 4 4 1 3 10 15 15 13 14 15 16 15 12 11 10 9 9 8 6 7 8 8 6 7 5 4 4 6 12 15 14 13 12 11 10 7 4 1
5 7 7 7 6 5 4 4 3 3 8 10 9 6 7 9 13 16 17 18 19 16 15 14 13 11 10 7 5 4 4 4 5 7 7 5 5 4 4 3 6 6 9 4 5 4 2 2 2
3 7 6 6 3 3 4 4 3 6 13 8 7 6 10 13 17 19 19 18 13 11 16 15 14 12 11 8 6 5 4 5 5 6 8 6 4 4 4 3 3 3 2 3 3 2 3 4 4
4 6 5 5 6 5 5 5 4 10 14 8 6 7 13 17 18 18 16 13 12 13 15 15 15 15 12 10 7 7 7 7 6 6 8 8 6 6 5 4 4 4 3 4 4 4 5 5 5
4 4 7 9 9 5 6 5 3 13 6 6 6 8 13 18 20 15 14 15 17 17 17 15 17 16 13 12 10 8 8 7 7 7 9 10 8 7 6 6 5 5 5 5 5 6 5 5 4
3 6 9 6 3 2 1 5 8 12 6 8 8 7 8 14 15 18 19 19 20 17 15 16 16 14 14 14 12 9 8 8 9 8 9 10 9 9 8 7 7 6 6 6 5 5 4 5 5
3 3 6 7 1 1 1 10 10 7 5 8 8 7 5 6 10 15 15 15 14 12 13 15 14 15 15 14 11 8 8 9 9 8 8 11 12 10 9 8 8 7 6 5 5 5 5 6 5
3 2 5 8 3 1 2 11 10 3 4 6 6 6 6 4 4 7 11 14 13 13 12 14 14 15 15 12 9 8 8 9 8 8 9 11 12 12 10 9 8 7 6 7 8 7 5 6 7
3 4 5 6 6 2 5 12 15 6 1 2 3 5 6 7 6 6 5 8 9 10 10 12 13 13 11 8 6 5 6 7 7 8 10 11 11 12 11 8 8 8 6 7 7 7 6 6 5
4 4 7 8 5 4 7 11 13 7 1 3 3 5 7 7 7 6 5 1 5 7 9 11 13 11 9 7 8 8 10 8 7 8 10 12 12 12 12 9 8 9 9 11 10 7 7 7 3
4 5 7 7 4 3 6 9 8 1 3 4 4 4 5 7 9 9 7 4 2 5 7 8 10 11 11 11 9 6 6 5 6 6 8 11 12 12 13 12 10 10 9 10 10 9 6 6 6
4 5 5 5 7 5 5 8 5 4 3 3 3 3 3 5 6 7 6 4 1 2 5 7 9 10 10 9 4 2 1 1 3 6 7 10 12 13 13 14 13 11 11 12 13 12 12 9 7
5 4 3 2 4 5 3 4 6 1 1 1 2 2 3 4 5 5 6 5 3 3 2 3 4 6 7 7 6 9 9 10 10 8 8 9 11 13 14 13 14 13 12 13 13 13 11 11 10
5 1 2 1 1 4 2 2 8 2 4 4 2 1 1 3 4 5 5 5 5 4 2 1 1 3 5 7 9 9 11 11 7 5 7 9 9 12 14 14 14 14 13 14 14 13 14 13 13
1 4 4 4 4 3 3 4 7 5 8 6 4 2 1 2 3 4 4 5 6 5 4 3 1 2 3 6 7 9 12 11 9 8 8 8 8 9 13 13 14 15 14 15 15 15 16 15 15
4 5 5 5 4 5 3 3 9 7 5 8 8 5 2 1 2 3 4 5 5 5 5 3 2 3 3 5 7 9 11 11 12 11 10 9 8 8 11 13 14 14 15 15 14 15 16 17 15
3 6 5 2 4 6 6 5 7 5 3 6 6 4 2 1 0 0 1 2 3 4 4 3 3 4 4 5 7 7 9 8 9 10 10 10 10 10 10 12 14 16 15 15 14 14 16 15 17
3 3 5 5 1 4 7 7 6 4 6 5 4 3 3 2 2 1 1 1 2 3 3 3 4 5 5 5 6 7 7 8 10 10 9 9 10 9 10 11 13 14 15 16 15 14 16 15 17
2 5 5 4 2 4 7 6 4 3 3 3 3 5 5 4 3 2 1 2 2 3 3 3 3 4 5 5 5 5 6 7 8 8 9 10 11 10 10 11 12 13 14 14 15 14 15 16 16
4 3 4 4 4 4 4 9 5 4 6 6 6 6 6 5 3 2 2 2 3 4 4 4 4 5 5 6 5 6 7 7 7 7 9 9 9 9 10 11 12 12 13 13 13 16 14 17 17
7 7 7 5 5 5 4 10 4 4 4 5 5 4 3 3 2 2 2 3 4 5 5 5 5 5 6 5 5 6 7 6 7 8 9 9 9 9 10 10 11 12 12 12 14 16 16 17 18
Wind_Direction
324 38 69 58 54 48 279 259 186 185 200 190 150 134 152 188 197 225 165 149 146 159 171 174 173 172 171 169 166 163 160 157 154 150 145 138 132 126 119 112 106 100 94 90 86 82 79 76 75
3 63 57 62 83 31 278 255 183 195 189 152 129 123 144 218 204 156 150 168 156 162 169 171 175 174 173 171 168 167 165 162 160 156 151 146 142 136 129 122 115 108 102 95 89 86 82 79 76
349 80 82 75 129 191 235 233 214 225 184 160 154 154 181 211 192 191 189 162 157 165 169 174 176 176 175 173 172 171 169 167 165 162 158 154 150 144 138 132 124 117 111 103 95 90 85 82 79
58 51 57 77 244 233 221 229 214 175 231 208 156 179 228 217 188 187 160 158 160 167 168 178 177 178 177 176 175 174 172 171 169 167 164 161 158 153 147 141 135 129 123 115 106 97 90 85 82
63 74 56 332 273 272 257 225 183 185 204 209 176 193 237 289 168 151 154 162 165 168 170 183 180 181 180 179 178 177 176 175 173 172 171 168 164 160 156 152 148 142 135 127 118 107 98 92 87
58 67 75 279 283 291 292 221 166 202 221 214 187 204 241 336 156 162 161 166 168 168 171 182 184 184 184 183 182 181 180 180 178 177 176 174 171 168 166 163 160 155 149 142 133 122 110 100 95
103 103 183 244 280 297 297 288 187 209 225 213 188 194 266 271 199 154 155 153 161 168 172 185 188 187 187 187 186 185 184 184 183 183 182 180 178 177 175 173 171 168 163 158 152 143 132 118 109
121 106 238 257 264 277 281 289 226 214 241 214 159 181 238 217 155 129 130 141 159 172 180 187 189 183 185 188 191 189 189 189 188 187 186 185 185 185 184 180 180 179 177 175 172 168 164 154 140
86 87 236 240 236 259 277 294 282 292 257 257 196 210 252 140 133 132 138 158 173 184 190 188 189 184 181 184 195 192 193 193 192 191 190 188 180 179 184 182 190 189 188 188 188 189 190 191 197
99 167 231 223 213 239 258 246 263 280 268 261 257 331 98 140 156 167 177 183 188 192 193 192 190 184 179 188 194 188 188 191 185 177 182 161 152 173 177 192 200 199 198 199 201 204 206 199 221
168 203 233 244 241 235 248 253 245 244 265 233 228 208 158 167 177 187 193 193 196 192 191 194 192 185 183 187 184 181 178 178 173 172 166 155 157 177 188 197 213 210 203 193 213 220 192 191 216
230 246 240 254 258 240 240 248 253 230 243 236 225 178 173 183 192 198 200 203 195 189 196 194 191 188 189 186 185 180 179 180 181 179 169 163 169 182 189 198 207 199 180 178 198 211 224 230 229
250 260 271 269 277 253 247 247 258 260 260 274 258 182 190 197 205 209 209 205 194 197 196 194 192 193 190 189 190 190 191 189 183 181 183 178 181 189 193 201 202 202 191 190 198 210 224 232 235
268 285 294 285 276 250 232 258 219 268 284 305 274 222 207 208 211 209 210 209 205 205 200 193 194 194 190 194 197 197 194 190 187 192 193 189 189 189 192 200 204 207 202 200 200 207 215 226 228
305 318 317 298 291 281 176 290 235 254 322 312 301 279 234 223 217 213 211 211 209 208 200 195 195 194 195 198 199 198 196 193 199 200 196 198 196 193 195 201 208 209 203 204 207 215 217 227 230
357 358 316 300 326 282 244 273 261 274 307 307 317 321 302 249 226 225 221 218 212 205 200 198 196 194 199 200 198 200 196 199 204 200 199 204 203 198 197 205 211 203 195 198 206 210 214 227 227
15 317 282 297 286 213 239 267 280 314 297 305 328 346 355 342 297 247 228 218 209 203 197 196 198 196 198 199 197 197 196 203 204 200 204 205 205 202 202 210 210 195 198 204 214 211 207 220 228
265 275 272 276 288 259 254 266 287 307 254 302 345 4 12 9 331 300 257 220 205 197 195 197 200 201 192 186 187 193 204 209 205 205 208 202 204 204 206 212 207 195 202 210 212 215 211 217 221
233 247 270 266 279 298 269 278 290 304 98 90 50 31 23 2 341 356 8 128 175 185 191 196 198 198 184 181 191 200 212 209 208 210 207 205 205 203 206 214 205 202 212 217 212 211 217 224 187
234 271 281 292 328 305 291 295 303 324 126 131 104 59 35 15 8 9 17 40 149 194 201 200 202 197 195 201 201 200 205 208 211 213 212 208 208 207 209 214 212 208 215 219 213 207 213 216 184
263 243 258 284 327 347 354 340 354 14 56 63 57 53 43 37 23 9 11 18 23 227 214 209 207 202 203 200 182 171 158 267 214 216 219 214 211 212 216 216 215 212 213 221 218 211 212 222 208
268 251 238 302 5 315 23 313 292 284 57 75 36 34 43 30 26 19 13 9 350 298 266 233 213 206 202 188 187 195 207 222 223 220 221 215 213 216 217 219 217 217 217 223 221 216 215 215 222
233 298 275 253 122 319 314 205 280 252 211 216 220 201 61 38 36 28 15 7 1 357 1 329 225 213 202 197 203 209 226 236 239 228 228 225 221 220 220 219 220 222 222 224 222 218 215 216 223
27 34 43 49 66 319 252 179 276 222 206 194 202 204 142 59 41 30 18 19 11 11 19 22 6 262 219 210 214 219 232 239 244 240 236 235 231 227 225 222 223 225 226 225 223 222 220 220 222
72 63 13 354 4 268 284 228 254 253 212 174 175 182 189 129 61 31 26 19 11 11 9 6 350 299 260 230 230 230 236 240 243 245 243 242 242 237 230 224 227 228 229 228 224 224 225 224 222
184 138 155 231 258 292 316 256 269 310 93 123 139 163 173 164 179 32 22 15 355 2 5 355 332 301 284 255 248 243 241 242 248 248 245 245 247 244 235 227 230 231 230 229 226 227 227 227 228
156 169 169 142 264 278 287 295 315 37 73 102 134 160 188 212 222 233 314 359 349 352 347 332 320 307 298 279 267 260 250 245 250 255 251 252 252 252 241 235 235 235 233 231 228 230 229 228 229
149 146 104 132 205 273 292 286 239 197 174 169 187 204 219 230 241 248 295 324 331 332 329 330 318 299 295 291 277 269 265 256 255 259 260 258 258 256 252 246 242 241 238 234 232 234 233 231 231
159 174 154 146 163 178 265 273 235 198 188 187 208 217 218 226 239 259 292 318 330 336 337 332 324 314 307 300 291 285 280 276 271 264 263 263 263 259 255 253 249 246 243 239 236 237 232 233 235
181 184 153 164 222 190 201 266 263 168 174 178 200 220 235 249 265 285 313 332 336 335 330 324 317 311 300 297 296 291 288 287 281 274 271 268 266 265 260 258 254 252 249 243 239 241 238 235 236